Location: Ravensburg
(47.7866°N, 9.6124°E)
Time: 10:23:29
(UTC+02:00)

STARS - Pass Details

Date: 16 March 2026
Orbit: 575 x 588 km, 98.2° (Epoch: 18 April)

Event Time Altitude Azimuth Distance (km) Brightness Sun altitude
Rises 03:20:20 0° 4° (N) 2,801 ? -31.2°
Reaches altitude 10° 03:22:41 10° 353° (N) 1,897 ? -30.9°
Enters shadow 03:23:00 12° 351° (N) 1,783 ? -30.8°
